This demonstration page uses our WeatherBlox Daily Observations layout. Learn more.

41.55636, -103.73856

Hourly Observations for October 25, 2019

Temp ( °F °C ) Dew Point ( °F °C ) Humidity (%) Winds ( mph kmh ) Pressure ( in mb ) Visibility ( mi km ) Precip ( " mm )
12:58 am 00:58 Clear 37 2.5 17 -8.5 44 44 S 3 6 30.39 1029 10 16.0934 0 0
1:58 am 01:58 Clear 33 0.8 16 -9.1 48 48 SSW 7 11 30.43 1030 10 16.0934 0 0
2:58 am 02:58 Hazy 31 -0.6 17 -8.4 56 56 SW 8 13 30.4 1030 5 8.0467 0 0
3:58 am 03:58 Clear 29 -1.4 18 -7.8 62 62 SW 12 19 30.39 1029 10 16.0934 0 0
4:58 am 04:58 Clear 35 1.5 18 -8 50 50 WSW 10 17 30.37 1028 10 16.0934 0 0
5:58 am 05:58 Clear 31 -0.4 19 -7.5 59 59 WSW 7 11 30.36 1028 10 16.0934 0 0
6:58 am 06:58 Clear 27 -2.7 19 -7.2 71 71 SW 7 11 30.36 1028 10 16.0934 0 0
7:58 am 07:58 Clear 28 -2.3 18 -7.6 67 67 NNW 3 6 30.36 1028 10 16.0934 0 0
8:58 am 08:58 Clear 28 -2.4 18 -7.8 67 67 WSW 7 11 30.34 1027 10 16.0934 0 0
9:58 am 09:58 Clear 29 -1.5 19 -7.1 66 66 WSW 8 13 30.32 1027 10 16.0934 0 0
10:58 am 10:58 Clear 28 -2.3 19 -7.1 70 70 WSW 7 11 30.32 1027 10 16.0934 0 0
11:58 am 11:58 Clear 31 -0.7 20 -6.6 65 65 W 8 13 30.35 1028 10 16.0934 0 0
1:58 pm 13:58 Sunny 33 0.5 21 -6 62 62 WSW 7 11 30.36 1028 10 16.0934 0 0
2:58 pm 14:58 Sunny 42 5.7 24 -4.4 49 49 W 8 13 30.34 1027 10 16.0934 0 0
3:58 pm 15:58 Sunny 49 9.3 22 -5.3 36 36 WNW 14 22 30.32 1027 10 16.0934 0 0
4:58 pm 16:58 Sunny 54 12.2 24 -4.6 31 31 NW 16 26 30.26 1025 10 16.0934 0 0
5:58 pm 17:58 Sunny 57 14 24 -4.5 28 28 WNW 14 22 30.23 1024 10 16.0934 0 0
6:58 pm 18:58 Sunny 60 15.4 25 -3.9 26 26 NW 16 26 30.19 1022 10 16.0934 0 0
7:58 pm 19:58 Sunny 62 16.5 26 -3.5 25 25 NNW 16 26 30.14 1021 10 16.0934 0 0
8:58 pm 20:58 Sunny 62 16.8 26 -3.3 25 25 NW 7 11 30.11 1020 10 16.0934 0 0
9:58 pm 21:58 Sunny 63 17.3 26 -3.2 25 25 WNW 12 19 30.07 1018 10 16.0934 0 0
10:58 pm 22:58 Sunny 63 17.4 26 -3.1 25 25 W 8 13 30.06 1018 10 16.0934 0 0
11:58 pm 23:58 Sunny 58 14.6 28 -2.5 31 31 WSW 3 6 30.04 1017 10 16.0934 0 0

Powered by AerisWeather